Bookmark and Share
Track history (hours):
 

Deo Volente

Last reported at 2014-Apr-24 14:15 UTC. Time now 2014-Apr-24 22:16 UTC.
Position N 59°03' E 010°34'.

Length 105 m; draft 4.5 m.

Type: Cargo ship. MMSI: 246518000.

NotesDate/timePositionNaut miles runAvg speedWind from/ knotsBaromVisibWave heightAir tempDewpointWater temp
2014-Apr-24 14:15N 59°03' E 010°34'1115.7
2014-Apr-24 13:32N 59°14' E 010°36'1717.5
2014-Apr-24 12:33N 59°31' E 010°26'3 0.1
2014-Apr-23 02:04N 59°33' E 010°24'913.7
2014-Apr-23 01:23N 59°25' E 010°34'154 9.5
2014-Apr-22 09:06N 58°00' E 006°26'610.8
2014-Apr-22 08:34N 58°03' E 006°17'1111.1
2014-Apr-22 07:33N 58°10' E 005°60'1111.3
2014-Apr-22 06:33N 58°18' E 005°44'1411.4
2014-Apr-22 05:22N 58°28' E 005°27'1211.9
2014-Apr-22 04:23N 58°38' E 005°17'1011.9
2014-Apr-22 03:33N 58°48' E 005°10'1211.9
2014-Apr-22 02:33N 58°58' E 005°00'1211.8
2014-Apr-22 01:33N 59°09' E 004°50'  
2014-Apr-18 22:20N 59°26' E 005°14'1 0.3
2014-Apr-18 19:25N 59°25' E 005°15'0 0.0
2014-Apr-18 18:04N 59°25' E 005°15'0 0.0
2014-Apr-18 17:33N 59°25' E 005°15'8 1.6
2014-Apr-18 12:28N 59°18' E 005°20'1415.1
2014-Apr-18 11:33N 59°04' E 005°21'1514.7
2014-Apr-18 10:33N 58°49' E 005°19'17613.5
2014-Apr-17 21:33N 55°60' E 003°55'22315.7
2014-Apr-17 07:23N 52°24' E 002°21'1417.5
2014-Apr-17 06:33N 52°10' E 002°16'1918.4
2014-Apr-17 05:32N 51°51' E 002°09'1918.6
2014-Apr-17 04:32N 51°35' E 001°55'1919.3
2014-Apr-17 03:33N 51°18' E 001°43'1413.7
2014-Apr-17 02:33N 51°05' E 001°37'2419.5
2014-Apr-17 01:20N 50°43' E 001°21'1818.8
2014-Apr-17 00:24N 50°31' E 001°01'1517.9
2014-Apr-16 23:33N 50°18' E 000°47'1818.3
2014-Apr-16 22:33N 50°04' E 000°30'2819.2
2014-Apr-16 21:06N 49°43' E 000°02'1017.7
2014-Apr-16 20:33N 49°33' W 000°01'1111.4
2014-Apr-16 19:33N 49°26' E 000°13'1312.7
2014-Apr-16 18:33N 49°28' E 000°32'5 0.2
2014-Apr-15 12:31N 49°28' E 000°40'8 8.6
2014-Apr-15 11:34N 49°28' E 000°28'1211.8
2014-Apr-15 10:34N 49°26' E 000°10'1212.1
2014-Apr-15 09:34N 49°31' W 000°07'7111.8
2014-Apr-15 03:34N 50°36' E 000°39'1313.2
2014-Apr-15 02:34N 50°45' E 000°54'1312.9
2014-Apr-15 01:33N 50°53' E 001°09'1312.8
2014-Apr-15 00:34N 51°02' E 001°24'1312.8
2014-Apr-14 23:34N 51°10' E 001°39'1413.5
2014-Apr-14 22:34N 51°21' E 001°54'1110.7
2014-Apr-14 21:33N 51°22' E 002°11'1211.7
2014-Apr-14 20:33N 51°23' E 002°29'1312.8
2014-Apr-14 19:34N 51°22' E 002°50'1413.6
2014-Apr-14 18:34N 51°24' E 003°11'1414.3
2014-Apr-14 17:34N 51°26' E 003°34'1110.7
2014-Apr-14 16:34N 51°20' E 003°49'2 2.1
2014-Apr-14 15:34N 51°18' E 003°50'2 2.3
2014-Apr-14 14:33N 51°16' E 003°50'  

Dump ship's entire track history

sailing weather and tide predictions

Deo Volente — PHFJ — position and weather